Jacksonville Craig, FL

4:29 PM EDT on April 28, 2017 (GMT -0400)
Craig Municipal

Weather History for KCRG - June, 2013

Change the Weather History Date:

Sunday, June 16, 2013

  Actual Average Record
Temperature  
Mean Temperature 79 °F -  
Max Temperature 87 °F 86 °F 100 °F (1998)
Min Temperature 72 °F 69 °F 64 °F (2002)
Cooling Degree Days 14    
Growing Degree Days 29 (Base 50)    
Moisture  
Dew Point 69 °F    
Average Humidity 68    
Maximum Humidity 84    
Minimum Humidity 53    
Precipitation  
Precipitation 0.00 in - - ()
Sea Level Pressure  
Sea Level Pressure 30.11 in    
Wind  
Wind Speed 6 mph (SE)    
Max Wind Speed 13 mph    
Max Gust Speed 18 mph    
Visibility 10 miles    
Events      
Averages and records for this station are not official NWS values.
T = Trace of Precipitation, MM = Missing Value Source: NWS Daily Summary

Daily Weather History Graph

Daily Weather History Graph

Search for Another Location

Airport or City:

Trip Planner

Search our weather history database for the weather conditions in past years. The results will help you decide how hot, cold, wet, or windy it might be!

Date:

Astronomy

Jun. 16, 2013 Rise Set
Actual Time 6:23 AM EDT 8:29 PM EDT
Civil Twilight 5:56 AM EDT 8:57 PM EDT
Nautical Twilight 5:22 AM EDT 9:31 PM EDT
Astronomical Twilight 4:46 AM EDT 10:06 PM EDT
Moon 1:29 PM EDT (6/16) 1:01 AM EDT (6/16)
Length of Visible Light 15h 01m
Length of Day
14h 06m
Waxing Crescent, 49% of the Moon is Illuminated
Jun 16
Waxing Crescent
Jun 16
First Quarter
Jun 23
Full
Jun 30
Last Quarter
Jul 8
New

Hourly Weather History & Observations

Time (EDT) Temp. Heat Index Dew Point Humidity Pressure Visibility Wind Dir Wind Speed Gust Speed Precip Events Conditions
12:53 AM 78.1 °F - 66.9 °F 68% 30.11 in 10.0 mi SE 6.9 mph - N/A   Clear
1:53 AM 77.0 °F - 66.9 °F 71% 30.11 in 10.0 mi SE 6.9 mph - N/A   Clear
2:53 AM 75.9 °F - 66.9 °F 74% 30.10 in 10.0 mi SSE 4.6 mph - N/A   Clear
3:53 AM 75.0 °F - 66.9 °F 76% 30.10 in 10.0 mi SSE 3.5 mph - N/A   Clear
4:53 AM 73.0 °F - 66.9 °F 81% 30.10 in 10.0 mi Calm Calm - N/A   Clear
5:53 AM 72.0 °F - 66.9 °F 84% 30.11 in 10.0 mi Calm Calm - N/A   Clear
6:53 AM 72.0 °F - 66.9 °F 84% 30.12 in 10.0 mi Calm Calm - N/A   Clear
7:53 AM 78.1 °F - 69.1 °F 74% 30.13 in 10.0 mi Calm Calm - N/A   Clear
8:53 AM 82.0 °F 84.9 °F 68.0 °F 62% 30.14 in 10.0 mi ESE 5.8 mph - N/A   Clear
9:53 AM 82.9 °F 85.8 °F 68.0 °F 60% 30.15 in 10.0 mi SSE 6.9 mph - N/A   Scattered Clouds
10:53 AM 84.0 °F 87.8 °F 69.1 °F 61% 30.13 in 10.0 mi ESE 8.1 mph - N/A   Scattered Clouds
11:53 AM 84.9 °F 88.8 °F 69.1 °F 59% 30.14 in 10.0 mi East 8.1 mph - N/A   Mostly Cloudy
12:53 PM 84.9 °F 88.8 °F 69.1 °F 59% 30.12 in 10.0 mi East 9.2 mph - N/A   Partly Cloudy
1:53 PM 86.0 °F 90.1 °F 69.1 °F 57% 30.12 in 10.0 mi ESE 9.2 mph - N/A   Clear
2:53 PM 86.0 °F 89.4 °F 68.0 °F 55% 30.10 in 10.0 mi ESE 9.2 mph - N/A   Clear
3:53 PM 86.0 °F 88.8 °F 66.9 °F 53% 30.09 in 10.0 mi ESE 11.5 mph - N/A   Clear
4:53 PM 84.9 °F 87.6 °F 66.9 °F 55% 30.08 in 10.0 mi East 12.7 mph 18.4 mph N/A   Clear
5:53 PM 84.0 °F 87.8 °F 69.1 °F 61% 30.07 in 10.0 mi ESE 8.1 mph 17.3 mph N/A   Clear
6:53 PM 82.9 °F 86.5 °F 69.1 °F 63% 30.08 in 10.0 mi ESE 10.4 mph - N/A   Partly Cloudy
7:53 PM 82.0 °F 85.9 °F 70.0 °F 67% 30.08 in 10.0 mi SE 10.4 mph - N/A   Partly Cloudy
8:53 PM 80.1 °F 83.2 °F 70.0 °F 71% 30.09 in 10.0 mi SE 6.9 mph - N/A   Partly Cloudy
9:53 PM 79.0 °F - 71.1 °F 77% 30.09 in 10.0 mi SE 5.8 mph - N/A   Clear
10:53 PM 79.0 °F - 72.0 °F 79% 30.10 in 10.0 mi SSE 5.8 mph - N/A   Mostly Cloudy
11:53 PM 79.0 °F - 72.0 °F 79% 30.10 in 10.0 mi SSE 4.6 mph - N/A   Scattered Clouds